Flag for U.S.A. Weather past 2 weeks in Cocoa Beach, Florida, U.S.A.

Now
77 °F

Clear.


Feels Like: 78 °F
Forecast: 71 / 81 °F
Wind: 7 mph from South

Location: Cocoa / Patrick Air Force Base

Current Time: Oct 21, 2014 at 12:48:38 AM

Latest Report: Oct 20, 2014 at 11:58 PM


Visibility: 10 mi

Pressure: 29.99 "Hg

Humidity: 73%

Dew point: 68 °F

Location of Cocoa BeachLocation

Historic Weather in Cocoa Beach — Graph

°F

Cocoa Beach temperature yesterday

Maximum temperature yesterday: 82 °F (at 3:58 PM)
Minimum temperature yesterday: 72 °F (at 2:58 AM)
Average temperature yesterday: 77 °F

Past Weeks' High & Low Weather Summary

 TemperatureHumidityPressure
High87 °F (Oct 14, 12:58 PM)96% (Oct 14, 10:58 PM)30.16 "Hg (Oct 14, 10:58 PM)
Low67 °F (Oct 19, 7:58 AM)45% (Oct 18, 3:58 PM)29.88 "Hg (Oct 16, 3:58 PM)
Average78 °F71%30.03 "Hg
* Reported Oct 5 10:58 PM — Oct 20 10:58 PM, Cocoa Beach, Weather by CustomWeather, © 2014

Note: Actual official high and low records may vary slightly from our data, if they occured in-between our weather recording intervals... More about our weather records

Advertising

Cocoa Beach weather history for previous 24 hours

 ConditionsComfort  
Time TempWeatherWind HumidityBarometerVisibility
10:58 PM
Oct 20
79 °FClear.6 mph67%29.99 "Hg10 mi
9:58 PM79 °FClear.7 mph67%29.99 "Hg10 mi
8:58 PM78 °FClear.7 mph66%29.98 "Hg10 mi
7:58 PM78 °FClear.7 mph65%29.98 "Hg10 mi
6:58 PM78 °FSunny.6 mph66%29.97 "Hg10 mi
5:58 PM80 °FSunny.7 mph61%29.96 "Hg10 mi
4:58 PM81 °FSunny.8 mph61%29.97 "Hg10 mi
3:58 PM82 °FSunny.8 mph60%29.98 "Hg10 mi
2:58 PM82 °FSunny.8 mph61%29.98 "Hg10 mi
1:58 PM82 °FSunny.6 mph63%30.00 "Hg10 mi
12:58 PM81 °FPartly sunny.5 mph68%30.03 "Hg10 mi
11:58 AM81 °FSunny.5 mph61%30.05 "Hg10 mi
10:58 AM79 °FSunny.5 mph69%30.07 "Hg10 mi
9:58 AM78 °FSunny.5 mph74%30.07 "Hg10 mi
8:58 AM76 °FSunny.7 mph86%30.06 "Hg10 mi
7:58 AM73 °FClear.6 mph90%30.05 "Hg10 mi
6:58 AM73 °FClear.6 mph90%30.03 "Hg10 mi
5:58 AM72 °FClear.5 mph90%30.02 "Hg10 mi
4:58 AM73 °FClear.5 mph92%30.01 "Hg10 mi
3:58 AM72 °FClear.6 mph93%30.02 "Hg10 mi
2:58 AM72 °FClear.5 mph92%30.02 "Hg10 mi
1:58 AM72 °FClear.5 mph91%30.03 "Hg10 mi
12:58 AM73 °FPassing clouds.5 mph89%30.04 "Hg10 mi
Weather by CustomWeather, © 2014

See weather overviewHow to use our weather pages